Regional Weather Roundup
Issued by NWS

Home | Current Version | Previous Version | Text Only | Print | Product List | Glossary Off
Versions: 1 2 3 4 5 6 7 8 9 10 11 12 13 14 15 16 17 18 19 20 21 22 23 24 25 26 27 28 29 30 31 32 33 34 35 36 37 38 39 40 41 42 43 44 45 46 47 48 49 50

000
ASUS43 KMPX 261910
RWRMN
WEATHER ROUNDUP FOR MINNESOTA
NATIONAL WEATHER SERVICE TWIN CITIES/CHANHASSEN MN
200 PM CDT THU MAR 26 2015


NOTE: "FAIR" INDICATES FEW OR NO CLOUDS BELOW 12,000 FEET WITH NO
SIGNIFICANT WEATHER AND/OR OBSTRUCTIONS TO VISIBILITY. N/A MEANS
CURRENT SKY AND/OR WEATHER CONDITIONS ARE NOT AVAILABLE.

MNZ060>063-068>070-262000-
   Twin Cities Metro

CITY           SKY/WX    TMP DP  RH WIND       PRES   REMARKS
TWIN CITIES    CLOUDY    36  17  46 N13G22    30.11S
ST PAUL        CLOUDY    35  17  47 N15       30.12S WCI  25
CRYSTAL        CLOUDY    35  17  47 N16       30.11S WCI  25
BLAINE         CLOUDY    36  18  48 NW13G21   30.11S
LAKEVILLE      CLOUDY    32  19  59 NW13G20   30.10S WCI  22
EDEN PRAIRIE   CLOUDY    34  19  54 NW13      30.11S WCI  25
SOUTH ST PAUL  CLOUDY    36  17  46 N9        30.10S
LAKE ELMO      CLOUDY    36  19  51 N15       30.11S
$$
MNZ001>005-007-008-013>017-022>024-027-028-262000-
   Northwest Minnesota

CITY           SKY/WX    TMP DP  RH WIND       PRES   REMARKS
BEMIDJI        SUNNY     27   4  37 N8G24     30.18S WCI  19
HALLOCK        PTSUNNY   28  18  64 N18       30.29F WCI  16
ROSEAU         SUNNY     27  10  50 N10       30.26S WCI  17
WARROAD        SUNNY     27   7  43 NE12      30.25S WCI  16
THIEF RVR FALL PTSUNNY   27  12  54 N14G21    30.26S WCI  15
CROOKSTON      CLOUDY    28  14  54 N15G21    30.28S WCI  17
FOSSTON        MOSUNNY   30  16  55 N16G24    30.22S WCI  19
DETROIT LAKES  MOSUNNY   30  18  59 N16G25    30.20R WCI  19
MOORHEAD       PTSUNNY   34   7  32 N17G30    30.25S WCI  23
PARK RAPIDS    PTSUNNY   29   8  41 N10G23    30.15S WCI  20
MAHNOMEN       MOCLDY    27  11  51 N16G26    30.22R WCI  15
$$
MNZ006-009>011-018-025>026-262000-
   North Central Minnesota

CITY           SKY/WX    TMP DP  RH WIND       PRES   REMARKS
BAUDETTE       SUNNY     22   7  52 NW15G23   30.22S WCI   9
FLAG ISLAND    SUNNY     19   1  45 N10       30.25S WCI   8
INTL FALLS     SUNNY     24   7  48 N13       30.18S WCI  12
WASKISH        MOSUNNY   27  12  54 NW7G17    30.20S WCI  19
BIG FORK       MOSUNNY   27   7  43 N12       30.16S WCI  16
LONGVILLE      PTSUNNY   28  10  47 NW7       30.15S WCI  21
GRAND RAPIDS   MOSUNNY   25   5  42 N15G25    30.13F WCI  12
CRANE LAKE     SUNNY     21   5  49 NW10G17   30.19R WCI  10
ORR            SUNNY     25   1  36 NW9G16    30.13S WCI  15
COOK           SUNNY     25   5  42 NW8G16    30.14F WCI  16
WALKER         FAIR      28   6  39 NW12G18   30.16R WCI  18
$$
MNZ012-019>021-037-262000-
   Northeast Minnesota

CITY           SKY/WX    TMP DP  RH WIND       PRES   REMARKS
DULUTH         MOSUNNY   27   7  42 N15       30.08S WCI  15
ELY            SUNNY     21   1  42 NW15G23   30.11S WCI   8
HIBBING        SUNNY     27   4  37 NW20G26   30.13S WCI  13
EVELETH        SUNNY     27   3  36 NW10G17   30.13S WCI  17
DULUTH HARBOR  SUNNY     30   9  40 N6        30.14S WCI  24
TWO HARBORS    SUNNY     30   9  40 N5        30.09R WCI  25
SILVER BAY     SUNNY     28   5  37 NW9G16    30.08R WCI  20
GRAND MARAIS     N/A     27   2  34 MISG      30.11S
G MARAIS ARPRT SUNNY     19   0  42 N14G22    30.03S WCI   6
$$
MNZ029>031-032-039>041-046>048-054>057-064-262000-
   West Central Minnesota

CITY           SKY/WX    TMP DP  RH WIND       PRES   REMARKS
FERGUS FALLS   PTSUNNY   28  10  47 N14       30.23S WCI  17
WHEATON        CLOUDY    28  16  59 NW15      30.24R WCI  17
MORRIS         CLOUDY    30  19  64 N16G25    30.18S WCI  19
ALEXANDRIA     CLOUDY    28  17  63 N10       30.16S WCI  19
ELBOW LAKE     CLOUDY    28  17  64 N13G24    30.19S WCI  17
WADENA         CLOUDY    27  14  59 NW13      30.16S WCI  16
GLENWOOD       CLOUDY    28  19  69 NW14      30.16S WCI  17
APPLETON       PTSUNNY   34  19  55 N15G23    30.19F WCI  24
BENSON         CLOUDY    32  19  59 N13       30.18F WCI  22
ORTONVILLE     PTSUNNY   34  18  51 N18       30.20S WCI  23
MADISON        PTSUNNY   36  19  51 N20G25    30.19F
WILLMAR        FAIR      30  19  64 N13       30.17F WCI  20
$$
MNZ033>034-036-042>043-049>051-058-059-262000-
   Central Minnesota

CITY           SKY/WX    TMP DP  RH WIND       PRES   REMARKS
ST CLOUD       CLOUDY    31  17  56 N12       30.13S WCI  22
SAUK CENTRE    CLOUDY    28  19  66 N10G16    30.16S WCI  19
PAYNESVILLE    CLOUDY    27  19  69 NW9G20    30.16S WCI  18
AITKIN         MOSUNNY   34   7  32 NW8G20    30.12S WCI  27
PINE RIVER     MOSUNNY   30  12  47 N12G24    30.17S WCI  21
BRAINERD       SUNNY     30   8  39 N13G22    30.15S WCI  20
STAPLES        CLOUDY    28  10  47 NW13G18   30.15F WCI  18
LONG PRAIRIE   CLOUDY    28  18  64 NW10G16   30.16S WCI  19
LITTLE FALLS   CLOUDY    32  12  43 NW13      30.14F WCI  22
LITCHFIELD     CLOUDY    30  21  69 NW14      30.15S WCI  20
BUFFALO        CLOUDY    32  18  55 N9        30.14S WCI  24
MAPLE LAKE     CLOUDY    33  21  60 N12       30.14S WCI  25
$$
MNZ037-044-045-052-053-262000-
   East Central Minnesota

CITY           SKY/WX    TMP DP  RH WIND       PRES   REMARKS
PRINCETON      CLOUDY    34  16  47 NW12      30.13S WCI  25
MORA           CLOUDY    32  12  43 N7G16     30.13F WCI  26
CAMBRIDGE      MOSUNNY   36  18  48 NW12      30.11S
RUSH CITY      PTSUNNY   32  14  47 N12G17    30.11F WCI  23
MOOSE LAKE     SUNNY     32   9  37 N10G23    30.09S WCI  24
HINCKLEY       MOCLDY    34  16  47 NW10G20   30.11S WCI  26
CLOQUET        SUNNY     28   0  29 N17G26    30.10S WCI  16
MCGREGOR       MOSUNNY   30  10  43 N14G21    30.13S WCI  20
$$
MNZ071>073-080-081-089-090-097-098-262000-
   Southwest Minnesota

CITY           SKY/WX    TMP DP  RH WIND       PRES   REMARKS
MONTEVIDEO     PTSUNNY   34  21  60 N16       30.19S WCI  23
GRANITE FALLS  MOSUNNY   35  22  59 NW13      30.19F WCI  26
CANBY          CLOUDY    33  21  61 N15       30.20S WCI  23
MARSHALL       CLOUDY    34  18  51 N21       30.18F WCI  22
REDWOOD FALLS  PTSUNNY   35  21  56 NW15G23   30.17S WCI  25
OLIVIA         CLOUDY    32  23  69 NW14G21   30.16S WCI  22
PIPESTONE      CLOUDY    34  21  60 NE8       30.14F WCI  27
WINDOM         CLOUDY    36  21  55 NW16      30.15S
WORTHINGTON    CLOUDY    34  19  55 N14G21    30.16F WCI  24
JACKSON        CLOUDY    34  21  60 NW14      30.15S WCI  24
TRACY          CLOUDY    34  23  64 NW14      30.17S WCI  24
SLAYTON        CLOUDY    32  20  60 N12       30.16F WCI  23
$$
MNZ065>067-074>077-082>085-091>093-262000-
   South Central Minnesota

CITY           SKY/WX    TMP DP  RH WIND       PRES   REMARKS
MANKATO        CLOUDY    32  19  59 NW14      30.14F WCI  22
NEW ULM        PTSUNNY   34  21  60 NW20G25   30.15S WCI  22
ST JAMES       PTSUNNY   37  23  56 NW16      30.16F
FAIRMONT       PTSUNNY   36  19  51 NW16      30.13S
GLENCOE        CLOUDY    33  23  65 NW12      30.14S WCI  25
FARIBAULT      CLOUDY    34  19  55 NW12      30.12S WCI  25
OWATONNA       CLOUDY    30  19  64 NW12      30.11F WCI  21
WASECA         CLOUDY    32  23  69 W16       30.14S WCI  21
ALBERT LEA     PTSUNNY   34  21  60 NW13G18   30.11F WCI  25
$$
MNZ078>079-086>088-094>096-262000-
   Southeast Minnesota

CITY           SKY/WX    TMP DP  RH WIND       PRES   REMARKS
ROCHESTER      CLOUDY    30  21  69 NW18      30.08S WCI  18
RED WING       CLOUDY    36  18  48 NW9       30.09S
STANTON        CLOUDY    35  21  56 NW13      30.10S WCI  26
DODGE CENTER   CLOUDY    30  21  69 NW13      30.09S WCI  20
WINONA         CLOUDY    34  21  60 NW16G22   30.08S WCI  23
AUSTIN         CLOUDY    30  19  64 NW14      30.11S WCI  20
PRESTON          N/A     30  21  69 NW17      30.08S WCI  18
$$
ABBREVIATIONS USED IN REMARKS
   TC - TEMPERATURES IN CELSIUS
  WCI - WIND CHILL INDEX
   HX - HEAT INDEX
  VSB - VISIBILITY
$$



USA.gov is the U.S. government's official web portal to all federal, state and local government web resources and services.